Location: Home
(42.5358°N, 72.7383°W)
Time: 11:21:04
(UTC-05:00)

S-56A Canister/Altair - Pass Details

Date: 29 November 2021
Orbit: 634 x 2499 km, 38.9° (Epoch: 22 January)

Event Time Altitude Azimuth Distance (km) Brightness Sun altitude
Rises 22:06:29 0° 190° (S) 5,333 - -61.5°
Reaches altitude 10° 22:13:24 10° 163° (SSE) 3,829 - -62.4°
Maximum altitude 22:16:25 12° 145° (SE) 3,444 - -62.8°
Drops below altitude 10° 22:19:08 10° 126° (SE) 3,356 - -63.2°
Sets 22:24:01 0° 96° (E) 3,899 - -63.8°
